シフレオ彗星

108P/Ciffreo (2007)

English version
Home page
Updated on April 4, 2008

---------------------------------------------------------------------

・ プロフィール

・ 写真集

・ 軌道要素

The following orbital elements are taken from MPC 51823:

Epoch 2007 June 29.0 TT = JDT 2454280.5
T 2007 July 18.0447 TT                                  MPC
q   1.719122             (2000.0)            P               Q
n   0.1357444      Peri.  357.9758      +0.6188368      -0.7640352
a   3.749628       Node    53.7390      +0.7238421      +0.4644289
e   0.541522       Incl.   13.0783      +0.3051125      +0.4478348
P   7.26
From 94 observations 1985-2000, mean residual 0".8.  Nongravitational
     parameters A1 = +0.15, A2 = -0.0236.

・ 星図

・ 光度変化

        m1 = 9.0 + 5 logΔ + 25.0 log r

---------------------------------------------------------------------

軌道要素はMPCのEphemerides and Orbital Elementsに掲載されたものです。
星図は StellaNavigator Ver.2.0 for Windows (アストロアーツ 編著 / アスキー出版局刊) で作成したものです。
光度グラフはComet for Windowsで作成したものです。

---------------------------------------------------------------------

Copyright(C) Seiichi Yoshida (comet@aerith.net). All rights reserved.